FIN2JA ESGG-EFHK

Flight info

Callsign FIN2JA
Flight time 1h 21m
Altitude 37000
Route LABAN Y430 TINKA DCT TUSNI DCT RIKUM DCT RIRIP Y364 LAKUT
Aircraft A320/M-SDE3FGHIRWY/LB1

Departure

Time 2026-04-23 18:17
Airport Göteborg Landvetter Airport (ESGG)

Arrival

Time 2026-04-23 19:38
Airport Helsinki Vantaa Airport (EFHK)
Time Latitude Longitude Altitude Speed Heading
2026-04-23 17:50 57.66887 12.29426 516 ft 0 kts 116°
2026-04-23 18:07 57.66893 12.29403 516 ft 3 kts 112°
2026-04-23 18:07 57.66899 12.29368 516 ft 3 kts 103°
2026-04-23 18:08 57.66902 12.29343 516 ft 3 kts 95°
2026-04-23 18:08 57.66901 12.29295 516 ft 3 kts 63°
2026-04-23 18:08 57.66892 12.29272 516 ft 1 kts 28°
2026-04-23 18:08 57.66890 12.29270 516 ft 0 kts 26°
2026-04-23 18:13 57.66890 12.29271 516 ft 1 kts 26°
2026-04-23 18:13 57.66919 12.29297 516 ft 5 kts 26°
2026-04-23 18:13 57.66948 12.29324 516 ft 4 kts 26°
2026-04-23 18:13 57.66982 12.29303 516 ft 11 kts 305°
2026-04-23 18:14 57.67011 12.29203 516 ft 14 kts 298°
2026-04-23 18:14 57.67104 12.29072 514 ft 15 kts 29°
2026-04-23 18:14 57.67203 12.29163 515 ft 17 kts 26°
2026-04-23 18:14 57.67310 12.29261 515 ft 18 kts 26°
2026-04-23 18:15 57.67430 12.29370 516 ft 20 kts 26°
2026-04-23 18:15 57.67542 12.29465 516 ft 16 kts
2026-04-23 18:15 57.67589 12.29303 516 ft 17 kts 263°
2026-04-23 18:15 57.67525 12.29111 516 ft 19 kts 207°
2026-04-23 18:16 57.67393 12.28990 515 ft 26 kts 206°
2026-04-23 18:16 57.67075 12.28696 514 ft 86 kts 206°
2026-04-23 18:16 57.66343 12.28033 511 ft 146 kts 205°
2026-04-23 18:17 57.64290 12.26106 1584 ft 169 kts 209°
2026-04-23 18:17 57.63199 12.25145 2135 ft 184 kts 203°
2026-04-23 18:17 57.61873 12.25106 2527 ft 203 kts 156°
2026-04-23 18:17 57.60516 12.26292 2859 ft 228 kts 152°
2026-04-23 18:18 57.59007 12.27590 3370 ft 244 kts 153°
2026-04-23 18:18 57.57620 12.29298 4352 ft 238 kts 126°
2026-04-23 18:18 57.56927 12.31990 5163 ft 234 kts 94°
2026-04-23 18:18 57.56933 12.34028 5424 ft 244 kts 71°
2026-04-23 18:19 57.57557 12.37064 6013 ft 257 kts 62°
2026-04-23 18:19 57.58279 12.40182 6841 ft 265 kts 62°
2026-04-23 18:19 57.58991 12.43386 7752 ft 270 kts 63°
2026-04-23 18:19 57.59689 12.46655 8638 ft 275 kts 63°
2026-04-23 18:20 57.60394 12.50014 9493 ft 281 kts 63°
2026-04-23 18:20 57.61114 12.53459 10291 ft 289 kts 63°
2026-04-23 18:20 57.62063 12.56885 10638 ft 306 kts 50°
2026-04-23 18:20 57.63495 12.59986 10943 ft 323 kts 38°
2026-04-23 18:21 57.65292 12.62544 11540 ft 328 kts 29°
2026-04-23 18:21 57.67210 12.64906 12310 ft 332 kts 29°
2026-04-23 18:21 57.69137 12.67342 13119 ft 336 kts 30°
2026-04-23 18:21 57.71045 12.69788 13902 ft 339 kts 30°
2026-04-23 18:22 57.73028 12.72348 14599 ft 343 kts 30°
2026-04-23 18:22 57.74999 12.74895 15311 ft 346 kts 30°
2026-04-23 18:22 57.76964 12.77429 15997 ft 349 kts 30°
2026-04-23 18:22 57.78972 12.80015 16688 ft 352 kts 30°
2026-04-23 18:23 57.81003 12.82629 17365 ft 355 kts 30°
2026-04-23 18:23 57.85116 12.87925 18716 ft 362 kts 30°
2026-04-23 18:24 57.89212 12.93524 19909 ft 373 kts 40°
2026-04-23 18:24 57.90876 12.97351 20491 ft 381 kts 47°
2026-04-23 18:24 57.92479 13.01335 21089 ft 384 kts 47°
2026-04-23 18:25 57.95707 13.09463 22236 ft 390 kts 48°
2026-04-23 18:25 57.97339 13.13581 22793 ft 394 kts 48°
2026-04-23 18:25 57.98983 13.17728 23328 ft 397 kts 48°
2026-04-23 18:25 58.00639 13.21907 23820 ft 400 kts 48°
2026-04-23 18:26 58.02311 13.26127 24241 ft 403 kts 48°
2026-04-23 18:26 58.03946 13.30263 24657 ft 405 kts 48°
2026-04-23 18:26 58.05633 13.34537 25077 ft 408 kts 48°
2026-04-23 18:26 58.07327 13.38839 25478 ft 410 kts 48°
2026-04-23 18:27 58.09036 13.43181 25876 ft 412 kts 48°
2026-04-23 18:27 58.10752 13.47551 26272 ft 415 kts 48°
2026-04-23 18:27 58.12472 13.51933 26663 ft 417 kts 48°
2026-04-23 18:27 58.14208 13.56366 27047 ft 419 kts 48°
2026-04-23 18:28 58.15948 13.60817 27425 ft 422 kts 49°
2026-04-23 18:28 58.17698 13.65302 27793 ft 424 kts 49°
2026-04-23 18:28 58.19453 13.69810 28179 ft 426 kts 48°
2026-04-23 18:28 58.21214 13.74351 28544 ft 428 kts 49°
2026-04-23 18:29 58.22980 13.78923 28872 ft 431 kts 49°
2026-04-23 18:29 58.24752 13.83516 29199 ft 433 kts 49°
2026-04-23 18:29 58.26532 13.88134 29533 ft 435 kts 49°
2026-04-23 18:29 58.28322 13.92786 29846 ft 436 kts 49°
2026-04-23 18:30 58.30113 13.97460 30159 ft 438 kts 49°
2026-04-23 18:30 58.31907 14.02150 30397 ft 440 kts 49°
2026-04-23 18:30 58.33712 14.06872 30626 ft 442 kts 49°
2026-04-23 18:30 58.35521 14.11604 30843 ft 443 kts 49°
2026-04-23 18:31 58.37333 14.16354 31106 ft 443 kts 49°
2026-04-23 18:31 58.39148 14.21119 31422 ft 442 kts 48°
2026-04-23 18:31 58.40953 14.25862 31728 ft 442 kts 48°
2026-04-23 18:31 58.42731 14.30544 32028 ft 442 kts 48°
2026-04-23 18:32 58.44531 14.35300 32343 ft 441 kts 48°
2026-04-23 18:32 58.46321 14.40047 32625 ft 441 kts 49°
2026-04-23 18:32 58.48111 14.44811 32919 ft 441 kts 49°
2026-04-23 18:32 58.49914 14.49619 33287 ft 440 kts 48°
2026-04-23 18:33 58.51670 14.54306 33710 ft 436 kts 48°
2026-04-23 18:33 58.53430 14.59008 34106 ft 433 kts 48°
2026-04-23 18:33 58.55177 14.63679 34402 ft 431 kts 48°
2026-04-23 18:33 58.56921 14.68353 34680 ft 431 kts 48°
2026-04-23 18:34 58.58660 14.73024 34947 ft 431 kts 48°
2026-04-23 18:34 58.60402 14.77705 35194 ft 430 kts 48°
2026-04-23 18:34 58.62137 14.82383 35439 ft 430 kts 48°
2026-04-23 18:34 58.63866 14.87064 35674 ft 430 kts 48°
2026-04-23 18:35 58.65596 14.91755 35906 ft 430 kts 48°
2026-04-23 18:35 58.67326 14.96452 36131 ft 430 kts 48°
2026-04-23 18:35 58.69026 15.01081 36347 ft 430 kts 48°
2026-04-23 18:35 58.70750 15.05778 36558 ft 430 kts 48°
2026-04-23 18:36 58.72476 15.10483 36787 ft 430 kts 48°
2026-04-23 18:36 58.74199 15.15187 36993 ft 430 kts 48°
2026-04-23 18:36 58.75919 15.19887 37065 ft 430 kts 48°
2026-04-23 18:37 58.79358 15.29312 37068 ft 429 kts 48°
2026-04-23 18:37 58.82776 15.38754 37055 ft 428 kts 47°
2026-04-23 18:38 58.86170 15.48174 37058 ft 428 kts 47°
2026-04-23 18:38 58.89564 15.57613 37051 ft 427 kts 47°
2026-04-23 18:39 58.92948 15.67072 37045 ft 428 kts 48°
2026-04-23 18:39 58.96328 15.76561 37054 ft 428 kts 47°
2026-04-23 18:40 58.99681 15.85976 37048 ft 428 kts 47°
2026-04-23 18:40 59.03087 15.95592 37044 ft 428 kts 48°
2026-04-23 18:41 59.06409 16.05038 37022 ft 428 kts 48°
2026-04-23 18:41 59.09766 16.14605 37023 ft 429 kts 48°
2026-04-23 18:42 59.13123 16.24204 37061 ft 428 kts 48°
2026-04-23 18:42 59.16465 16.33798 37070 ft 428 kts 48°
2026-04-23 18:43 59.19798 16.43409 37043 ft 427 kts 48°
2026-04-23 18:43 59.23117 16.53028 37037 ft 427 kts 48°
2026-04-23 18:44 59.26416 16.62636 37018 ft 427 kts 48°
2026-04-23 18:44 59.29720 16.72283 37006 ft 427 kts 49°
2026-04-23 18:45 59.32985 16.81990 37000 ft 430 kts 52°
2026-04-23 18:45 59.35751 16.92457 37002 ft 433 kts 55°
2026-04-23 18:46 59.38492 17.02961 37027 ft 432 kts 55°
2026-04-23 18:46 59.41197 17.13392 36981 ft 426 kts 55°
2026-04-23 18:47 59.43874 17.23769 36977 ft 426 kts 55°
2026-04-23 18:47 59.46543 17.34153 36981 ft 426 kts 55°
2026-04-23 18:48 59.49205 17.44564 36976 ft 426 kts 55°
2026-04-23 18:48 59.51861 17.55009 36979 ft 427 kts 55°
2026-04-23 18:49 59.54365 17.65657 36981 ft 432 kts 60°
2026-04-23 18:49 59.56510 17.76664 37001 ft 434 kts 61°
2026-04-23 18:50 59.58251 17.86010 37013 ft 434 kts 61°
2026-04-23 18:50 59.60679 17.99004 36950 ft 430 kts 60°
2026-04-23 18:51 59.62768 18.10068 36951 ft 430 kts 60°
2026-04-23 18:51 59.64849 18.21073 36962 ft 431 kts 60°
2026-04-23 18:52 59.66927 18.32189 36978 ft 431 kts 61°
2026-04-23 18:52 59.69005 18.43410 36990 ft 431 kts 61°
2026-04-23 18:53 59.71063 18.54579 36995 ft 431 kts 61°
2026-04-23 18:53 59.73101 18.65672 37076 ft 432 kts 60°
2026-04-23 18:54 59.75134 18.76829 36985 ft 429 kts 60°
2026-04-23 18:54 59.77159 18.87971 36986 ft 430 kts 60°
2026-04-23 18:55 59.79133 18.98887 36982 ft 430 kts 61°
2026-04-23 18:55 59.81140 19.10092 36995 ft 431 kts 61°
2026-04-23 18:56 59.82817 19.19499 36992 ft 431 kts 61°
2026-04-23 18:56 59.85128 19.32584 36992 ft 431 kts 61°
2026-04-23 18:57 59.87106 19.43855 36988 ft 432 kts 61°
2026-04-23 18:57 59.89088 19.55135 37017 ft 432 kts 61°
2026-04-23 18:58 59.91058 19.66433 36994 ft 432 kts 61°
2026-04-23 18:58 59.93012 19.77758 36983 ft 432 kts 62°
2026-04-23 18:59 59.94957 19.89105 36963 ft 432 kts 62°
2026-04-23 18:59 59.96900 20.00475 36960 ft 433 kts 62°
2026-04-23 19:00 59.98836 20.11854 36960 ft 433 kts 62°
2026-04-23 19:00 60.00755 20.23264 36963 ft 433 kts 62°
2026-04-23 19:01 60.02662 20.34692 36971 ft 432 kts 62°
2026-04-23 19:01 60.04563 20.46089 36967 ft 432 kts 62°
2026-04-23 19:02 60.06139 20.55593 36967 ft 433 kts 62°
2026-04-23 19:02 60.08340 20.68964 36957 ft 433 kts 62°
2026-04-23 19:03 60.09899 20.78486 36963 ft 433 kts 62°
2026-04-23 19:03 60.11760 20.89985 36962 ft 433 kts 62°
2026-04-23 19:04 60.13614 21.01478 36954 ft 433 kts 62°
2026-04-23 19:04 60.15468 21.12987 36998 ft 433 kts 63°
2026-04-23 19:05 60.17304 21.24482 36946 ft 432 kts 63°
2026-04-23 19:05 60.19119 21.35999 36952 ft 433 kts 63°
2026-04-23 19:06 60.20747 21.47723 36965 ft 440 kts 68°
2026-04-23 19:06 60.22024 21.59775 36963 ft 441 kts 68°
2026-04-23 19:07 60.23284 21.71859 36953 ft 442 kts 69°
2026-04-23 19:07 60.24536 21.83973 36951 ft 442 kts 69°
2026-04-23 19:08 60.25778 21.96087 36950 ft 441 kts 69°
2026-04-23 19:08 60.26999 22.08154 36929 ft 439 kts 69°
2026-04-23 19:09 60.28207 22.20206 35971 ft 440 kts 68°
2026-04-23 19:09 60.28817 22.26274 34484 ft 445 kts 68°
2026-04-23 19:09 60.29429 22.32397 33722 ft 444 kts 68°
2026-04-23 19:09 60.30032 22.38491 32791 ft 443 kts 68°
2026-04-23 19:10 60.30632 22.44581 31812 ft 444 kts 68°
2026-04-23 19:10 60.31234 22.50706 30788 ft 446 kts 68°
2026-04-23 19:10 60.31835 22.56862 29813 ft 448 kts 67°
2026-04-23 19:10 60.32419 22.62970 29212 ft 438 kts 67°
2026-04-23 19:11 60.32984 22.68960 28543 ft 432 kts 68°
2026-04-23 19:11 60.33539 22.74870 27931 ft 426 kts 67°
2026-04-23 19:11 60.34085 22.80629 27275 ft 421 kts 67°
2026-04-23 19:11 60.34637 22.86457 26658 ft 415 kts 67°
2026-04-23 19:12 60.35174 22.92157 26038 ft 411 kts 67°
2026-04-23 19:12 60.35698 22.97727 25444 ft 407 kts 67°
2026-04-23 19:12 60.36226 23.03312 24843 ft 403 kts 67°
2026-04-23 19:12 60.36747 23.08849 24267 ft 400 kts 68°
2026-04-23 19:13 60.37260 23.14352 23704 ft 396 kts 68°
2026-04-23 19:13 60.37763 23.19807 23066 ft 394 kts 68°
2026-04-23 19:13 60.38257 23.25206 22565 ft 388 kts 68°
2026-04-23 19:13 60.38742 23.30550 22050 ft 384 kts 68°
2026-04-23 19:14 60.39219 23.35841 21587 ft 379 kts 68°
2026-04-23 19:14 60.39687 23.41049 21115 ft 375 kts 68°
2026-04-23 19:14 60.40151 23.46202 20660 ft 370 kts 68°
2026-04-23 19:14 60.40610 23.51307 20205 ft 367 kts 68°
2026-04-23 19:15 60.41063 23.56368 19747 ft 365 kts 69°
2026-04-23 19:15 60.41510 23.61388 19279 ft 362 kts 69°
2026-04-23 19:15 60.41952 23.66394 18822 ft 360 kts 69°
2026-04-23 19:15 60.42393 23.71373 18332 ft 359 kts 69°
2026-04-23 19:16 60.42831 23.76352 17798 ft 358 kts 70°
2026-04-23 19:16 60.43261 23.81305 17305 ft 356 kts 70°
2026-04-23 19:16 60.43680 23.86201 17021 ft 348 kts 71°
2026-04-23 19:17 60.43060 23.95860 16386 ft 359 kts 110°
2026-04-23 19:17 60.41765 24.00162 15834 ft 356 kts 115°
2026-04-23 19:17 60.40435 24.04363 15004 ft 356 kts 116°
2026-04-23 19:17 60.39081 24.08659 13780 ft 369 kts 116°
2026-04-23 19:18 60.37690 24.13079 12586 ft 373 kts 117°
2026-04-23 19:18 60.36309 24.17447 12030 ft 358 kts 117°
2026-04-23 19:18 60.35011 24.21517 11893 ft 333 kts 117°
2026-04-23 19:18 60.33777 24.25400 11574 ft 325 kts 117°
2026-04-23 19:19 60.31386 24.32993 10940 ft 317 kts 117°
2026-04-23 19:19 60.30207 24.36743 10518 ft 318 kts 117°
2026-04-23 19:20 60.27821 24.44316 9193 ft 317 kts 118°
2026-04-23 19:20 60.26652 24.47992 8655 ft 306 kts 118°
2026-04-23 19:20 60.25430 24.51414 8124 ft 299 kts 133°
2026-04-23 19:20 60.23682 24.53678 7597 ft 304 kts 160°
2026-04-23 19:21 60.21637 24.54678 7080 ft 299 kts 169°
2026-04-23 19:21 60.17683 24.56172 6066 ft 279 kts 161°
2026-04-23 19:21 60.16058 24.58099 5531 ft 267 kts 131°
2026-04-23 19:22 60.15142 24.61167 5046 ft 251 kts 101°
2026-04-23 19:22 60.15116 24.64469 4596 ft 233 kts 69°
2026-04-23 19:22 60.17210 24.68275 3843 ft 199 kts 10°
2026-04-23 19:23 60.18565 24.68835 3532 ft 199 kts
2026-04-23 19:23 60.19927 24.69355 3225 ft 199 kts
2026-04-23 19:23 60.21282 24.69895 2901 ft 199 kts 14°
2026-04-23 19:24 60.23453 24.73243 2471 ft 201 kts 44°
2026-04-23 19:24 60.24414 24.75337 2211 ft 198 kts 44°
2026-04-23 19:24 60.26182 24.79195 1705 ft 183 kts 44°
2026-04-23 19:25 60.27819 24.82773 1189 ft 163 kts 45°
2026-04-23 19:25 60.29242 24.85878 747 ft 143 kts 46°
2026-04-23 19:26 60.30565 24.88790 396 ft 144 kts 46°
2026-04-23 19:26 60.31257 24.90301 261 ft 150 kts 45°
2026-04-23 19:27 60.33124 24.93339 1544 ft 196 kts 12°
2026-04-23 19:27 60.37292 24.94182 1980 ft 196 kts
2026-04-23 19:28 60.39596 24.92054 1981 ft 196 kts 298°
2026-04-23 19:28 60.39160 24.86779 1983 ft 208 kts 235°
2026-04-23 19:29 60.38229 24.84522 1981 ft 210 kts 231°
2026-04-23 19:29 60.36274 24.80126 1980 ft 210 kts 231°
2026-04-23 19:30 60.34311 24.75750 1980 ft 210 kts 231°
2026-04-23 19:30 60.33325 24.73562 1982 ft 211 kts 231°
2026-04-23 19:30 60.31354 24.69205 2036 ft 209 kts 230°
2026-04-23 19:31 60.30366 24.67031 2224 ft 211 kts 230°
2026-04-23 19:31 60.29368 24.64841 2281 ft 212 kts 230°
2026-04-23 19:31 60.28371 24.62661 2284 ft 211 kts 230°
2026-04-23 19:31 60.27376 24.60487 2287 ft 211 kts 230°
2026-04-23 19:32 60.26382 24.58320 2291 ft 211 kts 230°
2026-04-23 19:32 60.25395 24.56169 2288 ft 211 kts 230°
2026-04-23 19:32 60.24239 24.54332 2286 ft 210 kts 202°
2026-04-23 19:32 60.22838 24.54127 2290 ft 203 kts 163°
2026-04-23 19:33 60.21635 24.55501 2292 ft 199 kts 139°
2026-04-23 19:33 60.20885 24.57741 2292 ft 193 kts 99°
2026-04-23 19:33 60.20915 24.63032 2294 ft 189 kts 81°
2026-04-23 19:34 60.21044 24.65664 2294 ft 189 kts 81°
2026-04-23 19:34 60.21341 24.68213 2288 ft 185 kts 60°
2026-04-23 19:34 60.22943 24.72134 2289 ft 181 kts 43°
2026-04-23 19:35 60.23800 24.73996 2261 ft 182 kts 44°
2026-04-23 19:35 60.24659 24.75868 2101 ft 181 kts 44°
2026-04-23 19:35 60.25488 24.77679 1887 ft 170 kts 44°
2026-04-23 19:35 60.26258 24.79362 1651 ft 156 kts 44°
2026-04-23 19:36 60.26962 24.80901 1438 ft 144 kts 44°
2026-04-23 19:36 60.27630 24.82361 1241 ft 140 kts 44°
2026-04-23 19:36 60.28287 24.83797 1044 ft 140 kts 45°
2026-04-23 19:36 60.28958 24.85263 840 ft 144 kts 45°
2026-04-23 19:37 60.29635 24.86744 651 ft 143 kts 46°
2026-04-23 19:37 60.30307 24.88219 470 ft 143 kts 46°
2026-04-23 19:37 60.30983 24.89696 279 ft 143 kts 45°
2026-04-23 19:37 60.31646 24.91163 161 ft 134 kts 46°
2026-04-23 19:38 60.32168 24.92310 163 ft 86 kts 47°
2026-04-23 19:38 60.32458 24.92944 161 ft 37 kts 47°
2026-04-23 19:38 60.32644 24.93358 171 ft 44 kts 48°
2026-04-23 19:38 60.32870 24.93861 176 ft 52 kts 47°
2026-04-23 19:39 60.33047 24.94274 176 ft 16 kts 79°
2026-04-23 19:39 60.33047 24.94528 164 ft 17 kts 93°
2026-04-23 19:39 60.33034 24.94652 162 ft 0 kts 123°
2026-04-23 19:39 60.33034 24.94653 162 ft 0 kts 123°
2026-04-23 19:40 60.33030 24.94661 162 ft 4 kts 135°
2026-04-23 19:40 60.32997 24.94724 162 ft 7 kts 136°
2026-04-23 19:40 60.32983 24.94751 161 ft 0 kts 136°
2026-04-23 19:41 60.32966 24.94811 161 ft 8 kts 97°
2026-04-23 19:41 60.32995 24.94921 161 ft 12 kts 49°
2026-04-23 19:41 60.33066 24.95078 161 ft 16 kts 47°
2026-04-23 19:41 60.33148 24.95254 161 ft 18 kts 47°
2026-04-23 19:42 60.33209 24.95448 161 ft 16 kts 83°
2026-04-23 19:42 60.33157 24.95610 161 ft 14 kts 137°
2026-04-23 19:42 60.33084 24.95747 161 ft 14 kts 138°
2026-04-23 19:42 60.33002 24.95850 161 ft 13 kts 150°
2026-04-23 19:43 60.32927 24.95938 161 ft 12 kts 149°
2026-04-23 19:43 60.32828 24.96056 161 ft 22 kts 150°
2026-04-23 19:43 60.32682 24.96226 161 ft 25 kts 150°
2026-04-23 19:43 60.32576 24.96348 161 ft 0 kts 151°
2026-04-23 19:44 60.32573 24.96351 161 ft 4 kts 151°
2026-04-23 19:44 60.32533 24.96396 161 ft 7 kts 150°
2026-04-23 19:44 60.32487 24.96449 161 ft 10 kts 150°
2026-04-23 19:45 60.32399 24.96551 162 ft 15 kts 148°
2026-04-23 19:45 60.32320 24.96648 161 ft 0 kts 149°
2026-04-23 19:46 60.32283 24.96692 161 ft 14 kts 149°
2026-04-23 19:46 60.32200 24.96786 161 ft 13 kts 151°
2026-04-23 19:46 60.32125 24.96877 161 ft 12 kts 150°
2026-04-23 19:46 60.32052 24.96960 161 ft 12 kts 150°
2026-04-23 19:47 60.32010 24.97006 161 ft 8 kts 153°
2026-04-23 19:47 60.31969 24.97016 161 ft 3 kts 218°
2026-04-23 19:47 60.31961 24.96986 161 ft 6 kts 244°
2026-04-23 19:47 60.31952 24.96952 161 ft 0 kts 243°
2026-04-23 19:48 60.31947 24.96929 161 ft 0 kts 243°